#timestamp,LO_Frequency,Hit,StdDev 
1644620415.7,286047003.6,N
1644620435.5,286047002.2,N
1644620455.4,286047003.6,N
1644620475.2,286047001.7,N
1644620495.0,286047002.3,N
1644620495.9,286047002.3,N
1644620515.8,286046997.0,N
1644620535.6,286046992.9,N
1644620555.4,286046995.5,N
1644620575.3,286046995.0,N
1644620595.1,286046989.7,N
1644620615.9,286046994.5,N
1644620635.7,286046992.6,N
1644620655.5,286046990.2,N
1644620675.4,286046990.8,N
1644620695.2,286046995.4,N
1644620715.1,286047003.6,N
1644620716.0,286047003.6,N
1644620735.8,286047007.6,N
1644620755.6,286047003.4,N
1644620775.5,286047004.1,N
1644620795.3,286047007.5,N
1644620815.1,286047006.4,N
1644620835.9,286047010.0,N
1644620855.7,286047008.6,N
1644620875.6,286047014.0,N
1644620895.4,286047011.9,N
1644620915.2,286047014.0,N
1644620935.1,286047017.2,N
1644620936.0,286047017.2,N
1644620955.8,286047019.9,N
1644620975.6,286047011.0,N
1644620995.5,286047002.9,N
1644621015.3,286047000.6,N
1644621035.2,286046992.4,N
1644621055.9,286046989.3,N
1644621075.7,286046994.2,N
1644621095.6,286046991.7,N
1644621115.4,286046997.1,N
1644621135.2,286047002.6,N
1644621155.1,286047004.4,N
1644621156.0,286047004.4,N
1644621175.8,286047003.4,N
1644621195.7,286047004.9,N
1644621215.5,286047002.0,N
1644621235.3,286046999.9,N
1644621255.2,286046995.3,N
1644621275.0,286046995.4,N
1644621275.9,286046995.4,N
1644621295.7,286046999.5,N
1644621315.6,286046994.7,N
1644621335.4,286046993.8,N
1644621355.3,286046993.5,N
1644621375.1,286047000.8,N
1644621376.0,286047000.8,N
1644621395.8,286047005.2,N
1644621415.7,286047002.3,N
1644621435.5,286047001.4,N
1644621455.3,286047004.7,N
1644621475.2,286047000.4,N
1644621495.0,286046998.7,N
1644621495.9,286046998.7,N
1644621515.8,286046997.1,N
1644621535.6,286046997.2,N
1644621555.4,286046993.8,N
1644621575.3,286046995.8,N
1644621595.1,286047000.5,N
1644621615.8,286047001.7,N
1644621635.7,286047008.8,N
1644621655.5,286047004.7,N
1644621675.4,286047009.5,N
1644621695.2,286047007.3,N
1644621715.0,286046998.3,N
1644621715.9,286046998.3,N
1644621735.8,286046993.3,N
1644621755.6,286046997.4,N
1644621775.4,286047000.2,N
1644621795.3,286046997.1,N
1644621815.1,286046993.4,N
1644621835.9,286047000.6,N
1644621855.7,286047002.6,N
1644621875.5,286046995.0,N
1644621895.4,286046994.7,N
1644621915.2,286047001.1,N
1644621935.1,286047004.2,N
1644621936.0,286047004.2,N
1644621955.8,286047007.6,N
1644621975.6,286047009.6,N
1644621995.5,286047011.3,N
1644622015.3,286047006.8,N
1644622035.1,286047004.4,N
1644622055.9,286047004.9,N
1644622075.7,286047005.0,N
1644622095.6,286046999.8,N
1644622115.4,286047002.0,N
1644622135.2,286046999.2,N
1644622155.1,286046996.6,N
1644622156.0,286046996.6,N
1644622175.8,286047000.5,N
1644622195.6,286047002.7,N
1644622215.5,286047006.4,N
1644622235.3,286047009.1,N
1644622255.2,286047005.8,N
1644622275.9,286047011.2,N
1644622295.7,286047012.7,N
1644622315.6,286047013.5,N
1644622335.4,286047006.7,N
1644622355.2,286047011.1,N
1644622375.1,286047009.2,N
1644622376.0,286047009.2,N
1644622395.8,286047014.1,N
1644622415.7,286047017.8,Y
1644622435.5,286047012.2,P
1644622455.3,286047011.3,P
1644622475.2,286047020.3,P
1644622495.0,286047023.6,Y
1644622495.9,286047023.6,P
1644622515.8,286047009.2,N
1644622535.6,286047010.4,N
1644622555.4,286047010.8,N
1644622575.3,286047012.1,N
1644622595.1,286047014.3,N
1644622615.8,286047009.2,N
1644622635.7,286047010.5,N
1644622655.5,286047011.0,N
1644622675.4,286047003.6,N
1644622695.2,286046995.6,N
1644622715.0,286046994.2,N
1644622715.9,286046994.2,N
1644622735.8,286046991.8,N
1644622755.6,286046996.9,N
1644622775.4,286047000.7,N
1644622795.3,286047003.7,N
1644622845.1,286047003.7,E
1644622855.1,286046999.2,N
1644622856.0,286046999.2,P
1644622875.8,286046993.8,P
1644622895.6,286046989.8,Y
1644622915.5,286046987.9,P
1644622935.3,286046989.8,N
1644622955.2,286046989.5,N
1644622975.9,286046987.0,Y
1644622995.7,286046998.6,P
1644623015.6,286046993.8,N
1644623035.4,286046995.1,N
1644623055.2,286047001.4,N
1644623075.1,286047010.4,N
1644623076.0,286047010.4,N
1644623095.8,286047011.9,N
1644623115.7,286047012.1,N
1644623135.5,286047009.0,N
1644623155.3,286047001.9,N
1644623175.2,286047005.4,N
1644623195.0,286046998.3,N
1644623195.9,286046998.3,N
1644623215.8,286046999.9,N
1644623235.6,286047000.3,N
1644623255.4,286046996.2,N
1644623275.3,286046995.6,N
1644623295.1,286046993.3,N
1644623315.8,286046991.0,N
1644623335.7,286046993.9,N
1644623355.5,286047001.2,N
1644623375.4,286047004.2,N
1644623395.2,286047009.1,N
1644623415.0,286047009.2,N
1644623415.9,286047009.2,N
1644623435.8,286047010.0,N
1644623455.6,286047012.3,N
1644623475.4,286047008.9,N
1644623495.3,286047003.2,N
1644623515.1,286047001.7,N
1644623535.9,286047006.1,N
1644623555.7,286047013.5,N
1644623575.5,286047010.7,N
1644623595.4,286047006.8,N
1644623615.2,286047006.5,N
1644623635.0,286047006.0,N
1644623635.9,286047006.0,N
1644623655.8,286047005.6,N
1644623675.6,286047007.6,N
1644623695.5,286047002.0,N
1644623715.3,286047002.6,N
1644623735.1,286046999.4,N
1644623755.9,286046997.5,N
1644623775.7,286047002.3,N
1644623795.5,286047003.5,N
1644623815.4,286047000.1,N
1644623835.2,286047005.9,N
1644623855.1,286047000.9,N
1644623856.0,286047000.9,N
1644623875.8,286047002.7,N
1644623895.6,286047004.4,N
1644623915.5,286047008.1,N
1644623935.3,286047015.8,Y
1644623955.1,286047009.8,P
1644623975.9,286047009.2,P
1644623995.7,286047005.6,N
